Regional Weather Roundup
Issued by NWS Newport/Morehead, NC

Current Version | Previous Version | Text Only | Print | Product List | Glossary Off
Versions: 1 2 3 4 5 6 7 8 9 10 11 12 13 14 15 16 17 18 19 20 21 22 23 24 25 26 27 28 29 30 31 32 33 34 35 36 37 38 39 40 41 42 43 44 45 46 47 48 49 50
000 ASUS42 KMHX 220925 RWRMHX WEATHER ROUNDUP FOR EASTERN NORTH CAROLINA NATIONAL WEATHER SERVICE NEWPORT/MOREHEAD CITY NC 400 AM EST MON JAN 22 2018 NOTE: "FAIR" INDICATES FEW OR NO CLOUDS BELOW 12,000 FEET WITH NO SIGNIFICANT WEATHER AND/OR OBSTRUCTIONS TO VISIBILITY NCZ015>017-031-032-045>047-102-103-221000- NORTH COAST CITY SKY/WX TMP DP RH WIND PRES REMARKS EDENTON FAIR 40 38 92 CALM 30.21S ELIZABETH CITY FAIR 38 38 100 CALM 30.20F KITTY HAWK FAIR 47 37 68 CALM 30.20F MANTEO FAIR 38 36 93 CALM 30.22F $$ NCZ045>047-081-094-103-104-221000- CENTRAL COAST CITY SKY/WX TMP DP RH WIND PRES REMARKS FRISCO NOT AVBL $$ NCZ095-097-098-100-101-221000- SOUTHERN COAST CITY SKY/WX TMP DP RH WIND PRES REMARKS BEAUFORT FAIR 36 36 100 CALM 30.22S CEDAR ISLAND NOT AVBL JACKSONVILLE FAIR 37 37 100 CALM 30.22S PINEY ISLAND NOT AVBL WILMINGTON FAIR 36 35 96 CALM 30.21F $$ NCZ011>013-027>030-043-044-078>080-089-090>093-098-221000- COASTAL PLAIN CITY SKY/WX TMP DP RH WIND PRES REMARKS AHOSKIE FAIR 36 35 96 CALM 30.20F CLINTON FAIR 39 39 98 CALM 30.21F ELIZABETHTOWN NOT AVBL GOLDSBORO FAIR 38 35 89 CALM 30.19S GREENVILLE FAIR 37 36 93 CALM 30.21F HAVELOCK NOT AVBL KENANSVILLE FAIR 36 34 93 CALM 30.21F KINSTON FAIR 38 37 98 CALM 30.22S NEW BERN FAIR 35 34 96 CALM 30.24R RICHLANDS FAIR 35 34 96 CALM 30.22S ROCKY MOUNT NOT AVBL WASHINGTON FAIR 37 36 94 CALM 30.22S WHITEVILLE FAIR 38 36 89 CALM 30.21R $$ AMZ130-135-150-152-154-156-158-170-250-252-270-ANZ085-086-088-633-658-670-221000- MARINE OBSERVATIONS STATION/POSITION TIME TEMP WIND PRES WAVE SWELL AIR SEA DIR/SP/G HT/PER HT/PER (UTC) (F) (DEG/KT/KT) (MB) (FT/S) (FT/S) CHESAPEAKE LIGHT NOT AVBL 64 E VA BEACH 0850 56 58 230/ 6/ 8 1023.3 1/11 2/11 DUCK 0900 48 41 190/ 5/ 6 1022.1 2 E DUCK 0900 40 N/A 1/11 OREGON INLET 0900 210/ 2/ 2 1023.0 13E OREGON INLT 0848 41 N/A 1/11 2/11 HATTERAS CG 0900 46 51 20/ 2/ 2 1022.7 DIAMOND BUOY 0900 61 300/ 4/ 6 1023.4 CAPE LOOKOUT 0900 70/ 2/ 2 1023.4 BEAUFORT LAB 0900 42 47 350/ 3/ 3 1023.3 30 SE NEW RVR IN 0808 55 60 10/ 4/ 6 1023.4 30 SE NEW RVR IN 0900 58 N/A 2/10 27 SE WRIGHTSVLE 0808 56 59 350/ 2/ 4 1023.3 5 SE WRIGHTSVLE 0908 47 46 30/ 2/ 4 1022.9 225 S CAPE HAT 0850 66 70 80/ 4/ 4 1023.1 2/10 2/10 41 SE CHARLESTON 0900 67 210/ 8/ 10 1022.6 $$

USA.gov is the U.S. government's official web portal to all federal, state and local government web resources and services.